Regional Weather Roundup
Issued by NWS

Home | Current Version | Previous Version | Text Only | Print | Product List | Glossary Off
Versions: 1 2 3 4 5 6 7 8 9 10 11 12 13 14 15 16 17 18 19 20 21 22 23 24 25 26 27 28 29 30 31 32 33 34 35 36 37 38 39 40 41 42 43 44 45 46 47 48 49 50

427
ASUS43 KMPX 220810
RWRMN
WEATHER ROUNDUP FOR MINNESOTA
NATIONAL WEATHER SERVICE TWIN CITIES/CHANHASSEN MN
300 AM CDT FRI MAY 22 2015


NOTE: "FAIR" INDICATES FEW OR NO CLOUDS BELOW 12,000 FEET WITH NO
SIGNIFICANT WEATHER AND/OR OBSTRUCTIONS TO VISIBILITY. N/A MEANS
CURRENT SKY AND/OR WEATHER CONDITIONS ARE NOT AVAILABLE.

MNZ060>063-068>070-220900-
   Twin Cities Metro

CITY           SKY/WX    TMP DP  RH WIND       PRES   REMARKS
TWIN CITIES    CLEAR     54  34  46 NW3       30.13R
ST PAUL        CLEAR     52  38  58 N3        30.13R
CRYSTAL        CLEAR     45  37  73 CALM      30.12R
BLAINE         CLEAR     45  39  81 CALM      30.13R
LAKEVILLE      CLEAR     46  37  71 CALM      30.13R
EDEN PRAIRIE   CLEAR     51  38  60 N5        30.12S
SOUTH ST PAUL  CLEAR     54  33  45 NW3       30.12S
LAKE ELMO      FAIR      46  36  66 N3        30.13R
$$
MNZ001>005-007-008-013>017-022>024-027-028-220900-
   Northwest Minnesota

CITY           SKY/WX    TMP DP  RH WIND       PRES   REMARKS
BEMIDJI        CLEAR     37  32  85 CALM      30.14S
HALLOCK        CLEAR     45  37  76 CALM      30.14R
ROSEAU         CLEAR     41  36  81 CALM      30.14R
WARROAD        CLEAR     39  36  87 CALM      30.14R
THIEF RVR FALL CLEAR     43  34  70 CALM      30.15R
CROOKSTON      CLEAR     45  34  65 W5        30.15R
FOSSTON        CLEAR     37  30  75 CALM      30.15S
DETROIT LAKES  CLEAR     46  43  87 CALM      30.16S
MOORHEAD       CLEAR     48  39  71 CALM      30.16S
PARK RAPIDS    CLEAR     44  37  76 CALM      30.14S
MAHNOMEN       FAIR      44  39  84 S5        30.14S
$$
MNZ006-009>011-018-025>026-220900-
   North Central Minnesota

CITY           SKY/WX    TMP DP  RH WIND       PRES   REMARKS
BAUDETTE       CLEAR     38  36  92 CALM      30.12S
FLAG ISLAND    CLEAR     48  37  66 W5        30.11S
INTL FALLS     CLEAR     32  30  92 CALM      30.13R
WASKISH        CLEAR     37  37 100 CALM      30.13S
BIG FORK       CLEAR     34  30  86 CALM      30.14R
LONGVILLE      CLEAR     37  36  93 CALM      30.14R
GRAND RAPIDS   CLEAR     37  30  75 CALM      30.13S
CRANE LAKE     CLEAR     28  28 100 CALM      30.15R
ORR            CLEAR     34  28  80 CALM      30.11S
COOK           CLEAR     32  30  93 CALM      30.14R
WALKER         FAIR      37  35  94 CALM      30.14S
$$
MNZ012-019>021-037-220900-
   Northeast Minnesota

CITY           SKY/WX    TMP DP  RH WIND       PRES   REMARKS
DULUTH         CLEAR     41  32  70 CALM      30.12R
ELY            CLEAR     30  28  93 CALM      30.13R
HIBBING        CLEAR     32  28  85 CALM      30.13R
EVELETH        CLEAR     34  32  93 CALM      30.14R
DULUTH HARBOR  CLEAR     48  39  71 CALM      30.14R
TWO HARBORS    CLEAR     43  34  70 CALM      30.11R
SILVER BAY     CLEAR     36  28  75 CALM      30.11R
GRAND MARAIS     N/A     35  28  75 N5        30.14R WCI  31
G MARAIS ARPRT CLEAR     30  19  64 E5        30.13R WCI  25
$$
MNZ029>031-032-039>041-046>048-054>057-064-220900-
   West Central Minnesota

CITY           SKY/WX    TMP DP  RH WIND       PRES   REMARKS
FERGUS FALLS   CLEAR     52  37  58 NE3       30.16S
WHEATON        CLEAR     46  39  76 CALM      30.17F
MORRIS         CLEAR     48  39  71 NW5       30.14S
ALEXANDRIA     CLEAR     44  38  79 CALM      30.16S
ELBOW LAKE     FAIR      49  45  85 NE3       30.15R
WADENA         CLEAR     43  37  81 CALM      30.15R
GLENWOOD       CLEAR     48  37  66 N2        30.16R
APPLETON       CLEAR     46  39  76 W6        30.15S
BENSON         CLEAR     45  43  93 CALM      30.15S
ORTONVILLE     CLEAR     48  37  66 CALM      30.16R
MADISON        CLEAR     45  36  70 W5        30.16S
WILLMAR        FAIR      46  41  81 NE6       30.16S
$$
MNZ033>034-036-042>043-049>051-058-059-220900-
   Central Minnesota

CITY           SKY/WX    TMP DP  RH WIND       PRES   REMARKS
ST CLOUD       CLEAR     42  38  85 CALM      30.14R
SAUK CENTRE    FAIR      43  38  84 CALM      30.16R
PAYNESVILLE    CLEAR     38  36  92 CALM      30.16R
AITKIN         CLEAR     37  34  87 CALM      30.13R
PINE RIVER     CLEAR     37  36  93 CALM      30.18R
BRAINERD       CLEAR     38  35  89 CALM      30.15R
STAPLES        CLEAR     43  39  87 CALM      30.15R
LONG PRAIRIE   FAIR      43  37  81 CALM      30.16R
LITTLE FALLS   CLEAR     37  36  93 CALM      30.15R
LITCHFIELD     CLEAR     48  45  87 CALM      30.15S
BUFFALO        CLEAR     46  40  82 CALM      30.16R
MAPLE LAKE     CLEAR     44  41  91 CALM      30.16R
$$
MNZ037-044-045-052-053-220900-
   East Central Minnesota

CITY           SKY/WX    TMP DP  RH WIND       PRES   REMARKS
PRINCETON      CLEAR     41  37  87 CALM      30.14R
MORA           CLEAR     39  32  75 CALM      30.15R
CAMBRIDGE      CLEAR     46  34  61 CALM      30.12R
RUSH CITY      CLEAR     42  34  73 CALM      30.13R
MOOSE LAKE     CLEAR     36  34  93 CALM      30.12R
HINCKLEY       FAIR      43  34  70 CALM      30.13R
CLOQUET        CLEAR     37  30  75 NW3       30.13R
MCGREGOR       CLEAR     37  34  87 CALM      30.14S
$$
MNZ071>073-080-081-089-090-097-098-220900-
   Southwest Minnesota

CITY           SKY/WX    TMP DP  RH WIND       PRES   REMARKS
MONTEVIDEO     CLEAR     50  37  62 NW5       30.16S
GRANITE FALLS  CLEAR     44  36  71 W3        30.17R
CANBY          CLEAR     45  36  71 W5        30.17S
MARSHALL       CLEAR     46  30  53 W7        30.15S
REDWOOD FALLS  CLEAR     50  36  58 CALM      30.14S
OLIVIA         CLEAR     46  34  61 N3        30.14S
PIPESTONE      CLEAR     46  36  66 W1        30.17R
WINDOM         CLEAR     48  34  57 CALM      30.15S
WORTHINGTON    CLEAR     46  28  49 W3        30.17S
JACKSON        CLEAR     46  32  57 NW5       30.16R
TRACY          CLEAR     54  33  45 W5        30.16S
SLAYTON        CLEAR     47  34  61 CALM      30.17S
$$
MNZ065>067-074>077-082>085-091>093-220900-
   South Central Minnesota

CITY           SKY/WX    TMP DP  RH WIND       PRES   REMARKS
MANKATO        CLEAR     50  34  53 N7        30.13S
NEW ULM        CLEAR     46  36  66 NW7       30.14R
ST JAMES       CLEAR     48  34  57 W5        30.15S
FAIRMONT       CLEAR     48  30  49 NW5       30.14R
GLENCOE        CLEAR     48  41  77 N5        30.14R
FARIBAULT      CLEAR     43  39  87 CALM      30.13S
OWATONNA       CLEAR     45  37  76 CALM      30.13S
WASECA         CLEAR     45  34  65 N3        30.14R
ALBERT LEA     CLEAR     46  37  71 CALM      30.13R
$$
MNZ078>079-086>088-094>096-220900-
   Southeast Minnesota

CITY           SKY/WX    TMP DP  RH WIND       PRES   REMARKS
ROCHESTER      FAIR      49  32  52 NW8       30.12S
RED WING       CLEAR     43  39  87 CALM      30.11R
STANTON        CLEAR     43  36  76 S3        30.12R
DODGE CENTER   CLEAR     52  34  50 NW5       30.12S
WINONA         CLEAR     46  41  81 CALM      30.10R
AUSTIN         CLEAR     46  39  76 CALM      30.12S
PRESTON        CLEAR     49  32  52 NW8       30.12R
$$
ABBREVIATIONS USED IN REMARKS
   TC - TEMPERATURES IN CELSIUS
  WCI - WIND CHILL INDEX
   HX - HEAT INDEX
  VSB - VISIBILITY
$$



USA.gov is the U.S. government's official web portal to all federal, state and local government web resources and services.